Time,TemperatureF,DewpointF,PressureIn,WindDirection,WindDirectionDegrees,WindSpeedMPH,WindSpeedGustMPH,Humidity,HourlyPrecipIn,Conditions,Clouds,dailyrainin,SoftwareType,DateUTC
2013-01-22 00:02:00,9.0,-99.9,30.24,West,281,25.0,0.0,-999,-99.99,,,-99.99,,2013-01-22 06:02:00,
2013-01-22 00:12:00,9.0,-99.9,30.25,West,281,22.0,27.0,-999,-99.99,,,-99.99,,2013-01-22 06:12:00,
2013-01-22 00:22:00,9.0,-99.9,30.25,West,281,22.0,27.0,-999,-99.99,,,-99.99,,2013-01-22 06:22:00,
2013-01-22 00:33:00,9.0,-99.9,30.25,West,281,22.0,27.0,-999,-99.99,,,-99.99,,2013-01-22 06:33:00,
2013-01-22 00:43:00,9.0,-99.9,30.88,WNW,284,21.0,0.0,-999,-99.99,,,-99.99,,2013-01-22 06:43:00,
2013-01-22 00:53:00,9.0,-99.9,30.25,WNW,284,21.0,0.0,-999,-99.99,,,-99.99,,2013-01-22 06:53:00,
2013-01-22 01:03:00,9.0,-99.9,30.88,WNW,284,21.0,0.0,-999,-99.99,,,-99.99,,2013-01-22 07:03:00,
2013-01-22 01:12:00,8.0,-99.9,30.24,WNW,300,21.0,26.0,-999,-99.99,,,-99.99,,2013-01-22 07:12:00,
2013-01-22 01:22:00,7.0,-99.9,30.88,NW,304,19.0,26.0,-999,-99.99,,,-99.99,,2013-01-22 07:22:00,
2013-01-22 01:33:00,7.0,-99.9,30.88,NW,304,19.0,26.0,-999,-99.99,,,-99.99,,2013-01-22 07:33:00,
2013-01-22 01:43:00,7.0,-99.9,30.25,NW,304,19.0,26.0,-999,-99.99,,,-99.99,,2013-01-22 07:43:00,
2013-01-22 01:53:00,7.0,-99.9,30.25,NW,304,19.0,26.0,-999,-99.99,,,-99.99,,2013-01-22 07:53:00,
2013-01-22 02:02:00,7.0,-99.9,30.25,NW,304,19.0,26.0,-999,-99.99,,,-99.99,,2013-01-22 08:02:00,
2013-01-22 02:12:00,8.0,-99.9,30.26,WNW,290,18.0,26.0,-999,-99.99,,,-99.99,,2013-01-22 08:12:00,
2013-01-22 02:22:00,8.0,-99.9,30.26,WNW,290,18.0,26.0,-999,-99.99,,,-99.99,,2013-01-22 08:22:00,
2013-01-22 02:33:00,8.0,-99.9,30.26,WNW,290,18.0,26.0,-999,-99.99,,,-99.99,,2013-01-22 08:33:00,
2013-01-22 02:43:00,7.0,-99.9,30.26,WNW,298,21.0,27.0,-999,-99.99,,,-99.99,,2013-01-22 08:43:00,
2013-01-22 02:53:00,7.0,-99.9,30.26,WNW,298,21.0,27.0,-999,-99.99,,,-99.99,,2013-01-22 08:53:00,
2013-01-22 03:02:00,7.0,-99.9,30.26,WNW,298,21.0,27.0,-999,-99.99,,,-99.99,,2013-01-22 09:02:00,
2013-01-22 03:12:00,7.0,-99.9,30.27,WNW,290,17.0,24.0,-999,-99.99,,,-99.99,,2013-01-22 09:12:00,
2013-01-22 03:23:00,7.0,-99.9,30.27,WNW,290,17.0,24.0,-999,-99.99,,,-99.99,,2013-01-22 09:23:00,
2013-01-22 03:33:00,7.0,-99.9,30.27,WNW,290,17.0,24.0,-999,-99.99,,,-99.99,,2013-01-22 09:33:00,
2013-01-22 03:43:00,7.0,-99.9,30.91,WNW,298,15.0,26.0,-999,-99.99,,,-99.99,,2013-01-22 09:43:00,
2013-01-22 03:53:00,7.0,-99.9,30.28,WNW,298,15.0,26.0,-999,-99.99,,,-99.99,,2013-01-22 09:53:00,
2013-01-22 04:03:00,7.0,-99.9,30.28,WNW,298,15.0,26.0,-999,-99.99,,,-99.99,,2013-01-22 10:03:00,
2013-01-22 04:12:00,7.0,-99.9,30.29,WNW,283,18.0,24.0,-999,-99.99,,,-99.99,,2013-01-22 10:12:00,
2013-01-22 04:22:00,7.0,-99.9,30.92,WNW,283,18.0,24.0,-999,-99.99,,,-99.99,,2013-01-22 10:22:00,
2013-01-22 04:33:00,7.0,-99.9,30.29,WNW,283,18.0,24.0,-999,-99.99,,,-99.99,,2013-01-22 10:33:00,
2013-01-22 04:43:00,7.0,-99.9,30.92,WNW,283,18.0,24.0,-999,-99.99,,,-99.99,,2013-01-22 10:43:00,
2013-01-22 04:53:00,7.0,-99.9,30.29,WNW,283,18.0,24.0,-999,-99.99,,,-99.99,,2013-01-22 10:53:00,
2013-01-22 05:02:00,7.0,-99.9,30.29,WNW,283,18.0,24.0,-999,-99.99,,,-99.99,,2013-01-22 11:02:00,
2013-01-22 05:12:00,6.0,-99.9,30.30,WNW,301,16.0,20.0,-999,-99.99,,,-99.99,,2013-01-22 11:12:00,
2013-01-22 05:23:00,6.0,-99.9,30.30,WNW,301,16.0,20.0,-999,-99.99,,,-99.99,,2013-01-22 11:23:00,
2013-01-22 05:33:00,6.0,-99.9,30.93,WNW,301,16.0,25.0,-999,-99.99,,,-99.99,,2013-01-22 11:33:00,
2013-01-22 05:43:00,6.0,-99.9,30.93,WNW,301,16.0,25.0,-999,-99.99,,,-99.99,,2013-01-22 11:43:00,
2013-01-22 05:54:00,6.0,-99.9,30.30,WNW,301,16.0,25.0,-999,-99.99,,,-99.99,,2013-01-22 11:54:00,
2013-01-22 06:04:00,6.0,-99.9,30.30,WNW,301,16.0,25.0,-999,-99.99,,,-99.99,,2013-01-22 12:04:00,
2013-01-22 06:13:00,6.0,-99.9,30.32,West,274,17.0,24.0,-999,-99.99,,,-99.99,,2013-01-22 12:13:00,
2013-01-22 06:23:00,6.0,-99.9,30.32,West,274,17.0,24.0,-999,-99.99,,,-99.99,,2013-01-22 12:23:00,
2013-01-22 06:33:00,6.0,-99.9,30.95,West,274,17.0,24.0,-999,-99.99,,,-99.99,,2013-01-22 12:33:00,
2013-01-22 06:43:00,6.0,-99.9,30.95,West,274,17.0,24.0,-999,-99.99,,,-99.99,,2013-01-22 12:43:00,
2013-01-22 06:53:00,6.0,-99.9,30.32,West,274,17.0,24.0,-999,-99.99,,,-99.99,,2013-01-22 12:53:00,
2013-01-22 07:04:00,6.0,-99.9,30.32,West,274,17.0,24.0,-999,-99.99,,,-99.99,,2013-01-22 13:04:00,
2013-01-22 07:14:00,5.0,-99.9,30.33,WNW,285,16.0,21.0,-999,-99.99,,,-99.99,,2013-01-22 13:14:00,
2013-01-22 07:24:00,5.0,-99.9,30.33,WNW,285,16.0,21.0,-999,-99.99,,,-99.99,,2013-01-22 13:24:00,
2013-01-22 07:34:00,5.0,-99.9,30.97,West,281,15.0,21.0,-999,-99.99,,,-99.99,,2013-01-22 13:34:00,
2013-01-22 07:43:00,5.0,-99.9,30.34,West,281,15.0,21.0,-999,-99.99,,,-99.99,,2013-01-22 13:43:00,
2013-01-22 07:54:00,5.0,-99.9,30.34,West,281,15.0,21.0,-999,-99.99,,,-99.99,,2013-01-22 13:54:00,
2013-01-22 08:03:00,5.0,-99.9,30.34,West,281,15.0,21.0,-999,-99.99,,,-99.99,,2013-01-22 14:03:00,
2013-01-22 08:13:00,5.0,-99.9,30.34,WNW,287,15.0,21.0,-999,-99.99,,,-99.99,,2013-01-22 14:13:00,
2013-01-22 08:23:00,5.0,-99.9,30.98,West,276,14.0,21.0,-999,-99.99,,,-99.99,,2013-01-22 14:23:00,
2013-01-22 08:34:00,5.0,-99.9,30.35,West,276,14.0,21.0,-999,-99.99,,,-99.99,,2013-01-22 14:34:00,
2013-01-22 08:45:00,5.0,-99.9,30.35,West,276,14.0,21.0,-999,-99.99,,,-99.99,,2013-01-22 14:45:00,
2013-01-22 08:50:00,5.0,-99.9,30.37,West,273,14.0,20.0,-999,-99.99,,,-99.99,,2013-01-22 14:50:00,
2013-01-22 08:54:00,5.0,-99.9,30.35,West,276,14.0,21.0,-999,-99.99,,,-99.99,,2013-01-22 14:54:00,
2013-01-22 09:04:00,5.0,-99.9,30.35,West,276,14.0,21.0,-999,-99.99,,,-99.99,,2013-01-22 15:04:00,
2013-01-22 09:13:00,5.0,-99.9,30.37,West,273,14.0,20.0,-999,-99.99,,,-99.99,,2013-01-22 15:13:00,
2013-01-22 09:24:00,5.0,-99.9,30.37,West,273,14.0,20.0,-999,-99.99,,,-99.99,,2013-01-22 15:24:00,
2013-01-22 09:34:00,5.0,-99.9,30.37,West,273,14.0,20.0,-999,-99.99,,,-99.99,,2013-01-22 15:34:00,
2013-01-22 09:44:00,5.0,-99.9,30.37,West,273,14.0,20.0,-999,-99.99,,,-99.99,,2013-01-22 15:44:00,
2013-01-22 10:13:00,5.0,-99.9,30.38,WNW,296,13.0,20.0,-999,-99.99,,,-99.99,,2013-01-22 16:13:00,
2013-01-22 10:24:00,5.0,-99.9,30.38,WNW,296,13.0,20.0,-999,-99.99,,,-99.99,,2013-01-22 16:24:00,
2013-01-22 10:34:00,5.0,-99.9,31.01,West,275,13.0,21.0,-999,-99.99,,,-99.99,,2013-01-22 16:34:00,
2013-01-22 10:43:00,5.0,-99.9,31.01,West,275,13.0,21.0,-999,-99.99,,,-99.99,,2013-01-22 16:43:00,
2013-01-22 10:50:00,6.0,-99.9,30.38,West,259,14.0,18.0,-999,-99.99,,,-99.99,,2013-01-22 16:50:00,
2013-01-22 10:54:00,5.0,-99.9,31.01,West,275,13.0,21.0,-999,-99.99,,,-99.99,,2013-01-22 16:54:00,
2013-01-22 11:04:00,5.0,-99.9,30.38,West,275,13.0,21.0,-999,-99.99,,,-99.99,,2013-01-22 17:04:00,
2013-01-22 11:13:00,6.0,-99.9,30.38,West,259,14.0,18.0,-999,-99.99,,,-99.99,,2013-01-22 17:13:00,
2013-01-22 11:23:00,6.0,-99.9,30.38,West,259,14.0,18.0,-999,-99.99,,,-99.99,,2013-01-22 17:23:00,
2013-01-22 11:35:00,6.0,-99.9,30.38,West,259,14.0,18.0,-999,-99.99,,,-99.99,,2013-01-22 17:35:00,
2013-01-22 11:44:00,6.0,-99.9,30.38,West,259,14.0,18.0,-999,-99.99,,,-99.99,,2013-01-22 17:44:00,
2013-01-22 11:50:00,7.0,-99.9,30.35,West,260,9.0,19.0,-999,-99.99,,,-99.99,,2013-01-22 17:50:00,
2013-01-22 12:13:00,7.0,-99.9,30.35,West,260,9.0,19.0,-999,-99.99,,,-99.99,,2013-01-22 18:13:00,
2013-01-22 12:24:00,7.0,-99.9,30.35,West,260,9.0,19.0,-999,-99.99,,,-99.99,,2013-01-22 18:24:00,
2013-01-22 12:34:00,7.0,-99.9,30.35,West,260,9.0,19.0,-999,-99.99,,,-99.99,,2013-01-22 18:34:00,
2013-01-22 12:44:00,7.0,-99.9,30.35,West,260,9.0,19.0,-999,-99.99,,,-99.99,,2013-01-22 18:44:00,
2013-01-22 12:50:00,9.0,-99.9,30.35,WSW,254,13.0,20.0,-999,-99.99,,,-99.99,,2013-01-22 18:50:00,
2013-01-22 13:14:00,9.0,-99.9,30.35,WSW,254,13.0,20.0,-999,-99.99,,,-99.99,,2013-01-22 19:14:00,
2013-01-22 13:24:00,9.0,-99.9,30.35,WSW,254,13.0,20.0,-999,-99.99,,,-99.99,,2013-01-22 19:24:00,
2013-01-22 13:34:00,9.0,-99.9,30.35,WSW,254,13.0,20.0,-999,-99.99,,,-99.99,,2013-01-22 19:34:00,
2013-01-22 13:44:00,9.0,-99.9,30.35,WSW,254,13.0,20.0,-999,-99.99,,,-99.99,,2013-01-22 19:44:00,
2013-01-22 13:50:00,10.0,-99.9,30.33,West,273,15.0,19.0,-999,-99.99,,,-99.99,,2013-01-22 19:50:00,
2013-01-22 14:13:00,10.0,-99.9,30.96,West,273,15.0,19.0,-999,-99.99,,,-99.99,,2013-01-22 20:13:00,
2013-01-22 14:23:00,10.0,-99.9,30.33,West,273,15.0,19.0,-999,-99.99,,,-99.99,,2013-01-22 20:23:00,
2013-01-22 14:34:00,10.0,-99.9,30.33,West,273,15.0,19.0,-999,-99.99,,,-99.99,,2013-01-22 20:34:00,
2013-01-22 14:43:00,10.0,-99.9,30.33,West,273,15.0,19.0,-999,-99.99,,,-99.99,,2013-01-22 20:43:00,
2013-01-22 15:13:00,11.0,-99.9,30.33,West,266,14.0,20.0,-999,-99.99,,,-99.99,,2013-01-22 21:13:00,
2013-01-22 15:23:00,11.0,-99.9,30.96,West,270,19.0,22.0,-999,-99.99,,,-99.99,,2013-01-22 21:23:00,
2013-01-22 15:34:00,11.0,-99.9,30.33,West,270,19.0,22.0,-999,-99.99,,,-99.99,,2013-01-22 21:34:00,
2013-01-22 15:44:00,11.0,-99.9,30.33,West,270,19.0,22.0,-999,-99.99,,,-99.99,,2013-01-22 21:44:00,
2013-01-22 15:50:00,12.0,-99.9,30.33,West,260,16.0,24.0,-999,-99.99,,,-99.99,,2013-01-22 21:50:00,
2013-01-22 15:53:00,11.0,-99.9,30.33,West,270,19.0,22.0,-999,-99.99,,,-99.99,,2013-01-22 21:53:00,
2013-01-22 16:03:00,11.0,-99.9,30.33,West,270,19.0,22.0,-999,-99.99,,,-99.99,,2013-01-22 22:03:00,
2013-01-22 16:13:00,12.0,-99.9,30.33,West,260,16.0,24.0,-999,-99.99,,,-99.99,,2013-01-22 22:13:00,
2013-01-22 16:23:00,12.0,-99.9,30.33,West,260,16.0,24.0,-999,-99.99,,,-99.99,,2013-01-22 22:23:00,
2013-01-22 16:33:00,12.0,-99.9,30.33,West,260,16.0,24.0,-999,-99.99,,,-99.99,,2013-01-22 22:33:00,
2013-01-22 16:44:00,12.0,-99.9,30.33,West,260,16.0,24.0,-999,-99.99,,,-99.99,,2013-01-22 22:44:00,
2013-01-22 17:03:00,12.0,-99.9,30.96,West,268,18.0,26.0,-999,-99.99,,,-99.99,,2013-01-22 23:03:00,
2013-01-22 17:13:00,12.0,-99.9,30.33,West,275,13.0,21.0,-999,-99.99,,,-99.99,,2013-01-22 23:13:00,
2013-01-22 17:24:00,12.0,-99.9,30.33,West,268,18.0,26.0,-999,-99.99,,,-99.99,,2013-01-22 23:24:00,
2013-01-22 17:34:00,12.0,-99.9,30.96,West,268,18.0,26.0,-999,-99.99,,,-99.99,,2013-01-22 23:34:00,
2013-01-22 17:43:00,12.0,-99.9,30.95,WSW,256,18.0,23.0,-999,-99.99,,,-99.99,,2013-01-22 23:43:00,
2013-01-22 17:53:00,12.0,-99.9,30.32,WSW,256,18.0,23.0,-999,-99.99,,,-99.99,,2013-01-22 23:53:00,
2013-01-22 18:03:00,12.0,-99.9,30.32,WSW,256,18.0,23.0,-999,-99.99,,,-99.99,,2013-01-23 00:03:00,
2013-01-22 18:13:00,13.0,-99.9,30.95,West,266,18.0,22.0,-999,-99.99,,,-99.99,,2013-01-23 00:13:00,
2013-01-22 18:23:00,13.0,-99.9,30.32,West,266,18.0,22.0,-999,-99.99,,,-99.99,,2013-01-23 00:23:00,
2013-01-22 18:33:00,12.0,-99.9,30.95,WSW,256,18.0,23.0,-999,-99.99,,,-99.99,,2013-01-23 00:33:00,
2013-01-22 18:43:00,12.0,-99.9,30.32,WSW,256,18.0,23.0,-999,-99.99,,,-99.99,,2013-01-23 00:43:00,
2013-01-22 18:50:00,13.0,-99.9,30.32,West,270,17.0,25.0,-999,-99.99,,,-99.99,,2013-01-23 00:50:00,
2013-01-22 18:53:00,12.0,-99.9,30.32,WSW,256,18.0,23.0,-999,-99.99,,,-99.99,,2013-01-23 00:53:00,
2013-01-22 19:03:00,12.0,-99.9,30.32,WSW,256,18.0,23.0,-999,-99.99,,,-99.99,,2013-01-23 01:03:00,
2013-01-22 19:13:00,13.0,-99.9,30.32,West,270,17.0,25.0,-999,-99.99,,,-99.99,,2013-01-23 01:13:00,
2013-01-22 19:23:00,13.0,-99.9,30.32,West,270,17.0,25.0,-999,-99.99,,,-99.99,,2013-01-23 01:23:00,
2013-01-22 19:33:00,13.0,-99.9,30.32,West,270,17.0,25.0,-999,-99.99,,,-99.99,,2013-01-23 01:33:00,
2013-01-22 19:43:00,13.0,-99.9,30.32,West,270,17.0,25.0,-999,-99.99,,,-99.99,,2013-01-23 01:43:00,
2013-01-22 20:13:00,13.0,-99.9,30.32,West,278,16.0,21.0,-999,-99.99,,,-99.99,,2013-01-23 02:13:00,
2013-01-22 20:23:00,13.0,-99.9,30.94,West,278,19.0,25.0,-999,-99.99,,,-99.99,,2013-01-23 02:23:00,
2013-01-22 20:33:00,13.0,-99.9,30.31,West,278,19.0,25.0,-999,-99.99,,,-99.99,,2013-01-23 02:33:00,
2013-01-22 20:43:00,13.0,-99.9,30.94,West,278,19.0,25.0,-999,-99.99,,,-99.99,,2013-01-23 02:43:00,
2013-01-22 20:54:00,13.0,-99.9,30.31,West,278,19.0,25.0,-999,-99.99,,,-99.99,,2013-01-23 02:54:00,
2013-01-22 21:03:00,13.0,-99.9,30.31,West,278,19.0,25.0,-999,-99.99,,,-99.99,,2013-01-23 03:03:00,
2013-01-22 21:13:00,13.0,-99.9,30.32,WNW,291,15.0,21.0,-999,-99.99,,,-99.99,,2013-01-23 03:13:00,
2013-01-22 21:23:00,13.0,-99.9,30.32,WNW,291,15.0,21.0,-999,-99.99,,,-99.99,,2013-01-23 03:23:00,
2013-01-22 21:33:00,13.0,-99.9,30.32,WNW,291,15.0,21.0,-999,-99.99,,,-99.99,,2013-01-23 03:33:00,
2013-01-22 21:43:00,13.0,-99.9,30.32,WNW,295,14.0,29.0,-999,-99.99,,,-99.99,,2013-01-23 03:43:00,
2013-01-22 21:53:00,13.0,-99.9,30.95,WNW,295,14.0,29.0,-999,-99.99,,,-99.99,,2013-01-23 03:53:00,
2013-01-22 22:00:00,13.0,-99.9,30.33,WNW,287,15.0,23.0,-999,-99.99,,,-99.99,,2013-01-23 04:00:00,
2013-01-22 22:04:00,13.0,-99.9,30.32,WNW,295,14.0,29.0,-999,-99.99,,,-99.99,,2013-01-23 04:04:00,
2013-01-22 22:13:00,13.0,-99.9,30.32,West,279,19.0,22.0,-999,-99.99,,,-99.99,,2013-01-23 04:13:00,
2013-01-22 22:23:00,13.0,-99.9,30.96,WNW,287,15.0,23.0,-999,-99.99,,,-99.99,,2013-01-23 04:23:00,
2013-01-22 22:33:00,13.0,-99.9,30.33,WNW,287,15.0,23.0,-999,-99.99,,,-99.99,,2013-01-23 04:33:00,
2013-01-22 22:43:00,13.0,-99.9,30.33,WNW,287,15.0,23.0,-999,-99.99,,,-99.99,,2013-01-23 04:43:00,
2013-01-22 22:50:00,13.0,-99.9,30.33,WNW,286,15.0,19.0,-999,-99.99,,,-99.99,,2013-01-23 04:50:00,
2013-01-22 22:53:00,13.0,-99.9,30.33,WNW,287,15.0,23.0,-999,-99.99,,,-99.99,,2013-01-23 04:53:00,
2013-01-22 23:12:00,13.0,-99.9,30.33,WNW,286,15.0,19.0,-999,-99.99,,,-99.99,,2013-01-23 05:12:00,
2013-01-22 23:23:00,13.0,-99.9,30.33,WNW,286,15.0,19.0,-999,-99.99,,,-99.99,,2013-01-23 05:23:00,
2013-01-22 23:33:00,13.0,-99.9,30.33,WNW,286,15.0,19.0,-999,-99.99,,,-99.99,,2013-01-23 05:33:00,
2013-01-22 23:43:00,13.0,-99.9,30.33,WNW,286,15.0,19.0,-999,-99.99,,,-99.99,,2013-01-23 05:43:00,
2013-01-22 23:50:00,13.0,-99.9,30.34,WNW,282,12.0,18.0,-999,-99.99,,,-99.99,,2013-01-23 05:50:00,